Overview Statistics Trail Chart Weather Telemetry Raw packets
 

This is the latest recevied weather packets stored in our database for station/object KC9DRE. If no packets are shown the sender has not sent any weather packets the latest 10 day(s).

<< 90 91 92 93 94 95 96 >>
Time Temp. Humidity Pressure Rain* Wind** Luminosity Snow
1777224922 18.89° C 71% 1017 hPa 0 mm - 861 W/m² -
1777224620 18.89° C 74% 1017.2 hPa 0 mm - 854 W/m² -
1777224315 18.33° C 71% 1017.6 hPa 0 mm - 850 W/m² -
1777224011 17.78° C 76% 1017.4 hPa 0 mm - 866 W/m² -
1777223709 17.78° C 74% 1017.3 hPa 0 mm - 867 W/m² -
1777223408 17.78° C 75% 1017.6 hPa 0 mm - 871 W/m² -
1777223108 17.22° C 73% 1017.7 hPa 0 mm - 848 W/m² -
1777222803 17.22° C 76% 1017.7 hPa 0 mm - 818 W/m² -
1777222501 17.22° C 75% 1017.5 hPa 0 mm - 921 W/m² -
1777222198 17.22° C 76% 1017.7 hPa 0 mm - 671 W/m² -
1777221897 16.11° C 81% 1017.7 hPa 0 mm - 586 W/m² -
1777221596 15.56° C 80% 1017.9 hPa 0 mm - 454 W/m² -
1777221294 15.56° C 81% 1017.8 hPa 0 mm - 361 W/m² -
1777220990 15° C 83% 1017.7 hPa 0 mm - 320 W/m² -
1777220685 15° C 82% 1017.6 hPa 0 mm - 306 W/m² -
1777220383 15° C 83% 1017.8 hPa 0 mm - 268 W/m² -
1777220082 15° C 83% 1017.8 hPa 0 mm - 250 W/m² -
1777219779 15° C 83% 1017.8 hPa 0 mm - 229 W/m² -
1777219477 15° C 84% 1017.8 hPa 0 mm - 226 W/m² -
1777219173 14.44° C 84% 1017.9 hPa 0 mm - 238 W/m² -
1777218869 14.44° C 85% 1017.8 hPa 0 mm - 235 W/m² -
1777218566 15° C 84% 1017.9 hPa 0 mm - 239 W/m² -
1777218266 14.44° C 84% 1017.7 hPa 0 mm - 232 W/m² -
1777217963 14.44° C 85% 1017.6 hPa 0 mm - 236 W/m² -
1777217658 14.44° C 85% 1017.4 hPa 0 mm - 219 W/m² -

* Rain latest hour (hover to see other rain measurements)
** Current wind speed in m/s (hover to see current wind gust speed)